This demonstration page uses our WeatherBlox Daily Observations layout. Learn more.

Left ArrowRight Arrow

41.86663, -103.66717

Hourly Observations for September 3, 2021

Temp ( °F °C ) Dew Point ( °F °C ) Humidity (%) Winds ( mph kmh ) Pressure ( in mb ) Visibility ( mi km ) Precip ( " mm )
12:53 am 00:53 Clear 63 17.2 59 15 87 87 E 7 11 29.95 1014 10 16 0.00 0.00
1:53 am 01:53 Clear 63 17.2 58 14.4 84 84 NE 7 11 29.93 1014 10 16 0.00 0.00
2:53 am 02:53 Clear 61 16.1 58 14.4 90 90 E 5 7 29.94 1014 10 16 0.00 0.00
3:53 am 03:53 Clear 60 15.6 56 13.3 86 86 Calm 29.96 1015 9 14 0.00 0.00
4:53 am 04:53 Clear 61 16.1 57 13.9 87 87 E 7 11 29.96 1015 9 14 0.00 0.00
5:53 am 05:53 Clear 60 15.6 56 13.3 86 86 ESE 7 11 29.98 1015 10 16 0.00 0.00
6:25 am 06:25 Mostly Cloudy 60 15.6 56 13.3 86 86 ESE 7 11 29.98 1015 8 13 0.00 0.00
6:53 am 06:53 Cloudy 61 16.1 57 13.9 87 87 ESE 8 13 30.00 1016 9 14 0.00 0.00
7:13 am 07:13 Cloudy 61 16.1 57 13.9 87 87 ESE 8 13 29.99 1015 8 13 0.00 0.00
7:53 am 07:53 Cloudy 62 16.7 58 14.4 86 86 E 12 19 30.01 1016 7 11 0.00 0.00
8:53 am 08:53 Cloudy with Mist and Fog 62 16.7 58 14.4 86 86 ENE 8 13 30.05 1018 6 10 0.00 0.00
9:39 am 09:39 Cloudy with Mist and Fog 62 16.7 59 15 90 90 ESE 10 17 30.01 1016 3 4 0.00 0.00
9:53 am 09:53 Cloudy with Mist and Fog 62 16.7 59 15 90 90 ESE 10 17 30.05 1018 3 5 0.00 0.00
10:17 am 10:17 Cloudy with Mist and Fog 62 16.7 59 15 90 90 SSE 9 15 30.01 1016 4 6 0.00 0.00
10:53 am 10:53 Cloudy 64 17.8 59 15 84 84 SE 8 13 30.05 1018 9 14 0.00 0.00
11:07 am 11:07 Cloudy 64 17.8 59 15 84 84 SE 7 11 29.99 1016 10 16 0.00 0.00
11:27 am 11:27 Cloudy 65 18.3 58 14.4 78 78 SE 9 15 29.97 1015 10 16 0.00 0.00
11:53 am 11:53 Cloudy 66 18.9 58 14.4 75 75 SE 9 15 30.04 1017 10 16 0.00 0.00
12:11 pm 12:11 Cloudy 67 19.4 58 14.4 73 73 SE 8 13 29.96 1015 10 16 0.00 0.00
12:53 pm 12:53 Cloudy 69 20.6 57 13.9 66 66 ESE 9 15 30.01 1016 10 16 0.00 0.00
1:53 pm 13:53 Cloudy 70 21.1 57 13.9 64 64 SE 6 9 29.99 1016 10 16 0.00 0.00
2:29 pm 14:29 Partly Cloudy 73 22.8 57 13.9 57 57 ESE 12 19 29.85 1011 10 16 0.00 0.00
2:53 pm 14:53 Partly Cloudy 73 22.8 58 14.4 59 59 ESE 13 20 29.96 1014 10 16 0.00 0.00
3:53 pm 15:53 Sunny 71 21.7 58 14.4 63 63 SE 15 24 29.95 1014 10 16 0.00 0.00
4:53 pm 16:53 Cloudy with Light Rain 66 18.9 61 16.1 84 84 ESE 21 33 29.91 1013 7 11 0.01 0.25
5:37 pm 17:37 Cloudy 66 18.9 60 15.6 81 81 S 28 44 29.87 1011 9 14 0.00 0.00
5:53 pm 17:53 Cloudy with Rain 65 18.3 60 15.6 84 84 SE 38 61 29.86 1011 3 5 0.02 0.51
6:53 pm 18:53 undefined N/A N/A N/A undefined N/A N/A N/A 0.01 0.25
7:53 pm 19:53 Mostly Cloudy 64 17.8 53 11.7 68 68 Calm 29.95 1014 10 16 0.00 0.00
8:36 pm 20:36 Mostly Cloudy with Thunderstorms 63 17 55 13 77 77 WNW 23 37 30.00 1016 10 16 0.00 0.00
8:49 pm 20:49 Mostly Cloudy with Heavy Rain 63 17 57 14 83 83 WNW 22 35 30.02 1017 4 6 0.04 1.02
8:53 pm 20:53 Cloudy with Rain 62 16.7 57 13.9 84 84 W 15 24 30.08 1019 5 8 0.06 1.52
9:00 pm 21:00 Cloudy with Light Rain 63 17 57 14 83 83 WNW 15 24 30.02 1017 9 14 0.00 0.00
9:53 pm 21:53 Cloudy with Light Rain 61 16.1 58 14.4 90 90 SSE 18 30 29.99 1016 10 16 0.09 2.29
10:31 pm 22:31 Mostly Cloudy 63 17.2 57 13.9 81 81 NW 12 19 29.96 1015 10 16 0.00 0.00
10:53 pm 22:53 Mostly Cloudy 62 16.7 55 12.8 78 78 W 5 7 30.03 1017 10 16 0.00 0.00
11:53 pm 23:53 Clear 60 15.6 55 12.8 84 84 Calm 30.00 1016 10 16 0.00 0.00

Powered by AerisWeather